Wind_Speed
21 20 19 20 20 19 18 17 15 16 17 17 17 15 14 15 15 15 14 14 13 12 12 10 10 10 11 12 13 14 17 18 18 18 17 17 18 18 16 15 14 13 12 11
20 19 20 21 20 19 19 18 16 16 18 18 17 15 14 15 15 14 13 13 13 13 11 10 10 9 8 9 11 13 15 18 19 18 17 17 17 17 16 16 15 13 12 12
19 19 21 21 20 20 19 18 18 18 18 19 18 15 15 15 15 14 14 14 13 12 10 10 9 8 9 9 10 12 15 17 19 19 18 17 17 17 17 16 15 14 13 12
20 21 21 20 20 20 20 19 19 19 18 18 18 15 14 15 15 15 15 14 13 12 10 9 8 7 9 10 10 12 14 16 18 18 17 17 17 17 17 16 15 15 14 12
20 21 21 20 20 20 19 20 20 20 19 19 18 16 13 14 15 14 14 13 12 11 10 8 7 6 7 8 10 12 13 15 17 18 18 18 18 18 17 16 16 16 15 13
21 22 21 19 20 20 20 21 21 21 20 19 17 17 13 15 15 14 13 12 12 11 9 8 7 7 7 8 10 12 13 15 16 18 18 18 19 18 17 17 17 16 15 14
20 20 20 19 20 20 20 21 21 20 20 17 16 16 13 14 14 13 12 11 11 10 9 8 7 7 7 8 9 10 13 15 16 18 18 18 18 18 18 18 18 17 16 15
19 19 19 19 19 20 21 21 22 21 19 16 16 15 13 13 13 12 11 10 9 9 9 8 8 7 7 8 9 10 12 14 16 17 18 18 18 18 18 19 18 17 17 16
16 17 18 18 20 21 22 22 22 22 20 19 17 15 13 14 13 12 11 10 9 8 8 7 7 8 8 8 9 11 13 14 16 17 17 18 18 18 18 18 18 17 17 17
16 16 16 18 20 21 22 22 23 23 22 21 18 15 14 13 11 11 11 10 10 8 8 7 7 8 9 9 10 11 14 14 15 16 16 17 18 18 17 17 17 18 18 17
18 17 17 19 20 21 22 23 24 24 24 23 19 14 13 13 12 11 11 11 10 9 8 8 8 9 9 10 10 11 14 15 16 16 16 17 17 17 17 17 17 18 17 17
21 20 19 20 21 23 24 25 25 26 26 24 21 15 14 13 12 12 11 11 10 9 9 10 10 10 10 11 11 12 14 15 16 16 16 17 17 17 17 17 17 17 17 16
24 23 22 21 22 23 25 26 27 27 27 26 24 17 16 16 14 13 12 11 10 11 10 10 11 11 11 12 12 12 14 15 16 16 17 17 17 17 18 17 17 17 17 16
27 26 25 23 23 24 25 26 28 28 28 27 24 20 18 18 16 14 13 12 12 11 11 11 11 11 12 12 12 12 14 15 16 16 16 17 17 18 18 18 18 18 17 16
29 27 26 25 25 25 25 26 27 29 29 28 25 22 19 18 17 16 15 14 13 12 12 12 12 13 13 13 13 12 13 14 15 16 16 17 17 18 18 18 19 18 18 17
30 30 28 28 27 27 26 27 28 29 29 28 25 22 20 19 18 17 17 15 15 14 14 13 13 14 14 14 14 14 14 15 16 17 17 18 18 18 19 19 19 20 20 20
30 30 30 29 28 28 27 25 27 27 27 26 25 24 22 21 21 19 18 18 17 16 16 15 16 16 17 16 16 16 16 17 17 17 18 18 19 20 20 21 21 22 22 22
29 29 29 29 28 29 26 24 25 26 27 26 25 24 24 22 22 21 20 19 19 19 18 18 18 19 19 19 18 18 18 18 18 19 19 20 20 21 21 22 23 24 24 24
28 27 27 28 28 27 24 23 23 24 24 24 25 25 24 23 23 23 22 22 21 21 20 21 22 21 21 21 20 20 19 19 20 20 20 21 22 22 23 24 24 25 25 26
25 25 25 26 26 25 23 23 23 23 23 23 24 24 24 23 24 23 24 24 24 23 23 23 24 24 23 23 22 22 21 21 21 22 22 23 23 24 24 25 25 26 27 27
24 23 23 23 23 23 23 22 23 23 23 23 24 25 25 24 23 24 24 24 24 25 25 25 25 26 26 25 24 24 23 23 23 24 24 24 25 25 26 26 27 27 28 28
21 20 20 21 21 21 21 20 21 21 21 22 23 24 24 24 23 24 24 25 25 25 26 26 26 27 28 28 26 26 25 25 26 25 25 25 25 26 27 28 28 28 28 29
19 19 19 20 19 19 19 20 19 19 20 20 22 23 23 23 23 24 25 26 27 26 25 27 28 27 28 28 28 27 27 28 27 27 27 27 27 27 28 29 28 28 29 29
18 18 18 17 17 17 17 18 18 18 19 19 20 21 21 22 23 24 25 25 26 27 26 27 28 29 29 29 29 28 29 28 29 29 29 30 30 29 29 30 30 30 31 31
16 15 16 16 16 16 16 17 17 18 19 19 19 20 21 21 22 23 23 25 25 25 27 26 28 29 28 29 29 29 29 29 29 29 28 29 29 29 30 31 32 33 33 33
15 15 14 14 15 15 15 16 17 18 18 19 20 21 22 21 22 22 22 23 24 24 25 25 26 28 28 29 30 30 30 30 30 30 30 30 29 29 30 31 32 33 34 35
Wind_Direction
259 257 254 251 250 252 255 256 256 257 262 270 278 284 291 295 300 303 304 303 305 307 301 289 281 273 264 249 239 228 216 210 213 213 214 215 216 215 214 215 215 213 210 210
253 250 246 247 249 251 253 253 252 253 259 268 275 282 290 294 298 302 302 302 304 305 305 292 282 276 266 251 233 221 211 209 212 213 212 210 210 209 207 207 208 207 207 209
249 244 244 246 248 251 251 251 251 253 258 268 275 277 285 291 297 300 299 299 301 301 301 293 286 271 253 242 228 217 208 207 208 209 205 200 204 205 203 203 206 206 206 206
243 241 242 243 246 249 246 249 252 255 259 266 275 277 281 289 296 299 298 296 299 298 298 292 282 271 247 235 224 214 208 205 205 204 200 201 201 203 202 205 206 204 202 203
238 238 240 240 242 246 245 249 253 257 262 268 274 278 279 286 292 295 296 295 292 294 292 286 276 264 249 239 222 210 205 202 199 198 196 196 197 198 200 201 202 201 199 198
234 237 239 239 240 245 247 250 254 257 262 268 274 279 282 283 288 291 290 290 285 288 286 279 268 255 244 220 213 210 203 198 197 196 194 194 196 197 199 199 199 197 196 195
233 235 237 238 239 243 246 251 254 257 262 269 273 277 284 286 289 289 288 285 282 279 279 272 260 254 234 217 213 208 203 197 196 195 193 194 196 197 198 195 195 194 195 197
233 232 236 237 239 243 246 251 256 261 265 269 271 276 282 284 287 287 285 282 286 279 273 267 248 237 223 213 210 203 200 198 197 195 193 194 196 198 197 193 193 195 196 197
233 231 235 235 234 238 243 248 256 263 267 270 269 274 279 282 278 279 279 280 281 279 272 264 243 231 222 214 206 201 197 196 196 195 195 195 195 195 194 194 196 196 196 197
237 234 233 235 235 238 243 247 253 259 267 270 270 271 276 278 275 272 273 275 274 266 262 258 247 233 227 219 211 202 197 195 194 195 195 194 196 198 197 197 197 199 200 200
245 241 235 237 239 243 247 250 253 258 263 268 269 270 273 273 270 270 271 272 268 255 252 252 241 234 230 220 213 206 201 199 198 198 197 198 199 200 201 201 201 202 201 204
253 252 244 241 243 247 250 254 256 258 262 264 268 266 265 267 266 268 269 264 259 251 247 247 239 233 227 221 217 213 208 204 202 202 202 204 203 203 204 206 206 204 205 208
255 256 254 250 247 248 252 255 257 259 261 264 265 261 256 258 260 264 265 258 251 250 247 244 240 230 224 222 218 215 208 203 203 205 207 208 209 209 210 210 208 209 211 215
256 258 258 257 254 253 255 256 257 259 261 263 262 258 253 255 254 255 255 253 246 243 242 239 235 227 223 221 218 216 210 206 205 206 208 210 212 213 213 212 213 215 219 224
257 259 260 260 259 257 256 257 257 259 260 260 258 254 249 252 252 250 252 252 246 241 240 238 233 228 225 223 220 218 215 214 213 213 214 215 216 217 218 218 220 223 227 233
257 259 260 260 262 262 261 258 258 258 258 258 256 253 249 247 249 250 250 248 243 244 241 236 234 231 231 227 222 222 221 220 219 219 218 220 221 222 223 225 227 231 235 240
255 258 260 261 263 266 264 261 259 257 255 255 254 253 252 248 244 245 247 243 242 242 241 237 236 237 233 227 226 227 227 225 224 224 223 224 226 228 229 231 233 237 240 243
258 259 260 262 264 266 269 265 261 257 254 253 252 249 246 245 242 240 242 241 241 239 240 237 237 237 233 229 227 228 229 228 227 228 229 229 231 232 234 236 239 242 246 249
257 259 261 262 264 266 266 266 262 257 252 251 249 245 243 242 240 238 239 239 240 238 239 236 236 237 236 232 230 230 230 230 230 231 233 234 234 236 238 241 244 247 250 252
256 258 259 261 263 264 265 264 260 256 251 248 246 242 241 242 241 238 238 238 240 239 240 239 237 238 237 235 233 231 231 232 232 234 236 238 239 240 242 244 248 251 253 256
255 257 258 259 261 264 263 261 258 254 250 245 244 242 240 241 239 237 237 237 238 238 239 239 238 237 238 238 237 235 235 235 235 236 239 243 245 245 247 249 253 255 256 258
251 254 256 257 258 260 260 260 257 254 248 244 243 240 239 239 238 238 238 237 235 237 237 235 235 236 237 239 239 239 240 239 240 241 243 245 247 248 251 252 255 259 260 260
247 251 252 253 255 256 256 256 255 252 248 244 242 240 240 239 239 239 238 237 236 237 237 235 234 236 238 239 240 241 240 240 241 244 245 247 249 251 253 255 257 260 262 265
244 247 249 249 252 253 253 252 252 250 246 244 244 242 239 239 240 240 238 237 237 237 238 237 236 237 239 240 240 240 241 242 244 247 247 249 252 254 255 259 260 261 265 267
242 243 244 246 249 250 250 249 251 247 244 242 241 241 238 240 242 243 241 238 236 237 237 238 235 234 237 238 237 238 241 243 246 248 250 252 253 257 260 262 263 263 265 268
236 238 241 244 246 248 249 251 250 248 244 241 241 240 239 239 239 240 240 238 236 236 235 237 236 234 236 236 237 239 242 246 249 250 252 254 257 260 262 263 266 267 267 270
Height
5832 5834 5835 5835 5836 5837 5839 5840 5841 5841 5840 5840 5840 5840 5839 5838 5837 5835 5834 5832 5831 5829 5826 5824 5823 5824 5824 5825 5827 5828 5831 5834 5837 5840 5843 5845 5848 5851 5854 5857 5860 5862 5864 5866
5828 5830 5830 5830 5832 5833 5835 5836 5837 5838 5837 5837 5837 5837 5836 5835 5834 5833 5832 5830 5829 5826 5824 5821 5821 5821 5821 5822 5824 5826 5828 5831 5835 5837 5840 5843 5846 5849 5852 5855 5858 5860 5863 5865
5823 5825 5825 5826 5828 5830 5831 5833 5834 5834 5834 5834 5834 5835 5833 5832 5831 5830 5829 5828 5826 5824 5822 5820 5819 5818 5818 5820 5822 5824 5825 5828 5831 5834 5837 5840 5843 5847 5851 5853 5856 5859 5861 5863
5818 5819 5821 5823 5825 5826 5828 5829 5829 5830 5830 5830 5831 5831 5830 5829 5828 5827 5826 5825 5823 5822 5820 5819 5818 5817 5817 5818 5819 5821 5824 5826 5829 5831 5835 5838 5842 5846 5849 5851 5854 5857 5860 5862
5814 5815 5816 5819 5821 5822 5824 5825 5826 5826 5827 5828 5827 5827 5828 5826 5826 5825 5824 5822 5821 5820 5818 5818 5817 5816 5816 5817 5818 5820 5822 5824 5827 5830 5833 5837 5840 5844 5847 5849 5853 5855 5858 5861
5809 5810 5813 5815 5817 5818 5820 5821 5822 5823 5824 5825 5824 5823 5824 5823 5823 5822 5821 5820 5819 5818 5817 5816 5816 5815 5815 5816 5817 5819 5821 5823 5826 5829 5832 5835 5839 5842 5845 5848 5851 5854 5857 5860
5805 5807 5809 5811 5813 5815 5817 5818 5819 5820 5820 5821 5821 5820 5821 5821 5820 5819 5819 5818 5817 5816 5815 5815 5814 5814 5815 5815 5816 5818 5820 5822 5825 5828 5831 5834 5837 5840 5843 5846 5849 5853 5856 5859
5801 5804 5805 5807 5810 5811 5813 5815 5816 5817 5817 5818 5818 5817 5819 5818 5817 5816 5816 5816 5815 5814 5814 5814 5814 5814 5814 5815 5816 5817 5819 5821 5824 5827 5830 5833 5836 5838 5841 5844 5848 5851 5854 5857
5798 5801 5802 5804 5805 5807 5808 5810 5812 5812 5813 5813 5814 5815 5816 5815 5815 5814 5814 5814 5814 5813 5813 5813 5813 5813 5814 5814 5815 5816 5818 5821 5823 5826 5829 5832 5835 5838 5840 5843 5846 5849 5853 5856
5793 5796 5798 5799 5801 5803 5805 5806 5807 5808 5808 5809 5810 5811 5813 5812 5812 5812 5812 5812 5812 5812 5812 5812 5812 5813 5813 5814 5815 5816 5818 5820 5823 5826 5828 5831 5834 5837 5839 5842 5845 5848 5851 5854
5789 5792 5794 5795 5797 5798 5800 5802 5802 5803 5804 5805 5806 5810 5809 5809 5809 5809 5809 5809 5809 5810 5810 5811 5811 5812 5813 5814 5815 5816 5818 5820 5822 5825 5828 5830 5833 5836 5839 5841 5844 5847 5850 5853
5784 5786 5789 5791 5793 5793 5795 5796 5797 5798 5799 5800 5801 5807 5805 5806 5806 5806 5806 5806 5807 5808 5808 5809 5809 5810 5811 5813 5814 5815 5817 5819 5821 5824 5827 5829 5832 5835 5837 5840 5842 5845 5848 5851
5779 5781 5783 5786 5789 5789 5789 5790 5791 5792 5793 5794 5796 5802 5801 5802 5802 5803 5803 5804 5804 5805 5806 5807 5808 5809 5810 5812 5813 5814 5816 5818 5820 5823 5825 5828 5830 5833 5836 5838 5841 5843 5846 5848
5774 5775 5778 5780 5781 5782 5783 5784 5785 5786 5786 5788 5790 5794 5796 5797 5798 5799 5800 5801 5801 5802 5804 5805 5806 5807 5809 5810 5812 5813 5814 5817 5819 5821 5823 5826 5829 5831 5833 5836 5838 5841 5843 5846
5767 5769 5771 5773 5774 5775 5776 5777 5778 5778 5780 5781 5785 5787 5790 5792 5794 5795 5797 5798 5799 5800 5801 5802 5803 5805 5807 5808 5810 5812 5813 5815 5817 5819 5821 5824 5826 5829 5831 5834 5836 5838 5840 5842
5761 5763 5764 5766 5767 5768 5769 5770 5771 5771 5773 5775 5778 5781 5784 5787 5789 5791 5793 5794 5796 5797 5798 5799 5800 5802 5804 5806 5808 5809 5811 5812 5814 5817 5819 5821 5824 5826 5828 5831 5833 5835 5837 5838
5754 5756 5757 5759 5760 5760 5761 5763 5764 5765 5766 5769 5771 5776 5778 5780 5783 5786 5788 5790 5792 5793 5795 5796 5798 5799 5801 5803 5804 5806 5808 5810 5812 5814 5816 5818 5820 5823 5825 5827 5829 5831 5832 5834
5747 5748 5749 5751 5753 5753 5757 5756 5757 5757 5760 5762 5765 5768 5771 5773 5776 5780 5783 5785 5787 5789 5790 5792 5794 5795 5797 5799 5800 5802 5804 5806 5808 5810 5812 5814 5816 5818 5820 5822 5824 5826 5827 5828
5740 5741 5742 5743 5744 5746 5749 5749 5750 5751 5753 5756 5758 5761 5764 5767 5770 5774 5777 5779 5781 5783 5785 5787 5789 5791 5793 5794 5796 5798 5800 5802 5804 5806 5808 5810 5812 5813 5815 5817 5819 5820 5822 5823
5733 5734 5736 5736 5737 5739 5743 5743 5743 5746 5747 5750 5752 5755 5758 5761 5764 5768 5770 5773 5775 5777 5779 5781 5784 5786 5788 5790 5792 5794 5796 5798 5800 5802 5804 5805 5806 5808 5810 5811 5813 5814 5815 5816
5727 5728 5729 5730 5731 5733 5735 5736 5738 5741 5743 5744 5746 5748 5751 5754 5758 5761 5764 5766 5768 5770 5773 5775 5778 5780 5783 5785 5787 5789 5791 5793 5794 5796 5798 5799 5801 5802 5804 5805 5806 5807 5808 5808
5721 5722 5724 5725 5726 5729 5729 5730 5732 5734 5735 5737 5739 5741 5744 5747 5751 5754 5757 5759 5762 5764 5766 5768 5771 5774 5776 5779 5781 5784 5785 5787 5788 5790 5791 5793 5794 5796 5797 5798 5799 5800 5800 5801
5716 5718 5719 5720 5723 5722 5723 5724 5726 5727 5729 5730 5733 5735 5738 5741 5744 5747 5750 5752 5755 5757 5759 5761 5764 5767 5769 5772 5774 5777 5779 5780 5782 5784 5785 5786 5787 5789 5790 5791 5791 5792 5792 5792
5711 5712 5713 5715 5716 5717 5718 5719 5720 5721 5723 5724 5726 5729 5732 5734 5737 5740 5742 5745 5748 5750 5752 5754 5756 5759 5762 5764 5767 5770 5772 5773 5775 5777 5778 5779 5780 5781 5782 5783 5783 5784 5784 5784
5706 5707 5708 5710 5711 5712 5713 5713 5714 5716 5717 5719 5721 5723 5725 5727 5730 5733 5735 5738 5740 5743 5744 5746 5749 5751 5754 5757 5760 5762 5764 5766 5768 5770 5771 5772 5773 5774 5774 5774 5775 5775 5775 5775
5702 5703 5704 5705 5706 5707 5708 5709 5709 5710 5712 5713 5715 5717 5719 5721 5723 5726 5728 5730 5733 5735 5737 5739 5742 5744 5747 5749 5752 5754 5757 5759 5760 5762 5763 5765 5765 5766 5766 5766 5766 5766 5766 5766